"Pseudo-MPEC" for P110A3H

Created 2020 May 24 19:07:09 UT using Find_Orb

Click here for an explanation of pseudo-MPECs

 
 Astrometry: 
     P110A3H  C2020 05 19=F'0#I_Astrometry=bS@^-?'t:7VysjySZR`]M7bD]i.almX/FxF51
     P110A3H  C2020 05 19G-qN(1e^dredacted;_(cl=oRTclickBihere@'_(hRv;vRb*I6fF51
     P110A3H  C2020 05 194V$Roafor;a$09X,]Nd3.,?*,Z[8Be;3+Oi/explanation'^pvEF51

Station data:
(F51) Pan-STARRS 1, Haleakala  (N20.707235 W156.255910)  US/Hawaii.
   Observers N. Primak, A. Schultz, S. Watters, J. Thiel, T. Goggia. Measurer
   PS1 Science Consortium. 1.8-m Ritchey-Chrétien + CCD.

Orbital elements:  P110A3H
   Perihelion 2020 Jun 28.694966 +/- 73.2 TT = 16:40:45 (JD 2459029.194966)
Epoch 2020 May 19.0 TT = JDT 2458988.5   Earth MOID: 0.0014   AutoNEOCP
M 327.88765931 +/- 80               (J2000 ecliptic)
n   0.78909860 +/- 0.618            Peri.   10.12299 +/- 70
a   1.15979669 +/- 0.605            Node   270.87020 +/- 27
e   0.1525251 +/- 0.23              Incl.    0.16576 +/- 38
P   1.25/456.21d           H 29.3   G  0.15   U 12.4  SR
q 0.98289849 +/- 0.34    Q 1.33669489 +/- 13.9
From 3 observations 2020 May 19 (32.1 min); mean residual 0".13
Residuals in arcseconds: 
200519 F51  .11+  .07-    200519 F51  .22-  .13+    200519 F51  .11+  .07-    

Ephemerides (geocentric):
Date (UTC) HH   RA              Dec         delta   r     elong  mag " sig PA
---- -- -- --  -------------   -----------  ------ ------ -----  --- ---- ---
2020 05 24 19  03 27 24.402   +00 38 31.46  466668 1.0100  22.5 27??  26d   9
2020 05 24 20  03 23 54.014   +01 05 31.95  477073 1.0099  22.5 27??  26d   9
2020 05 24 21  03 20 32.604   +01 31 22.20  487590 1.0099  22.5 27??  26d   9
2020 05 24 22  03 17 19.673   +01 56 05.70  498212 1.0098  22.6 27??  27d   9
2020 05 24 23  03 14 14.752   +02 19 45.82  508931 1.0098  22.7 27??  27d   9
2020 05 25 00  03 11 17.400   +02 42 25.80  519741 1.0097  22.9 27??  27d   9
2020 05 25 01  03 08 27.205   +03 04 08.72  530637 1.0097  23.0 27??  27d   9
2020 05 25 02  03 05 43.780   +03 24 57.53  541612 1.0096  23.2 27??  27d   9
2020 05 25 03  03 03 06.761   +03 44 55.02  552661 1.0096  23.4 27??  27d   9
2020 05 25 04  03 00 35.808   +04 04 03.84  563781 1.0095  23.6 27??  27d   9
2020 05 25 05  02 58 10.602   +04 22 26.50  574965 1.0094  23.9 27??  27d  10
2020 05 25 06  02 55 50.843   +04 40 05.38  586212 1.0094  24.1 27??  27d  10
2020 05 25 07  02 53 36.252   +04 57 02.73  597515 1.0093  24.4 27??  27d  10
2020 05 25 08  02 51 26.564   +05 13 20.66  608873 1.0093  24.6 27??  27d  10
2020 05 25 09  02 49 21.533   +05 29 01.17  620283 1.0092  24.9 27??  28d  10
2020 05 25 10  02 47 20.927   +05 44 06.16  631740 1.0092  25.1 27??  28d  10
2020 05 25 11  02 45 24.527   +05 58 37.39  643242 1.0091  25.4 26??  28d  10
2020 05 25 12  02 43 32.129   +06 12 36.55  654787 1.0091  25.6 26??  28d  10
2020 05 25 13  02 41 43.540   +06 26 05.22  666372 1.0090  25.9 26??  28d  10
2020 05 25 14  02 39 58.580   +06 39 04.88  677995 1.0090  26.2 26??  28d  10
2020 05 25 15  02 38 17.077   +06 51 36.95  689654 1.0089  26.4 26??  28d  10
2020 05 25 16  02 36 38.871   +07 03 42.75  701347 1.0089  26.7 26??  28d  10
2020 05 25 17  02 35 03.811   +07 15 23.53  713072 1.0088  26.9 26??  28d  10
2020 05 25 18  02 33 31.754   +07 26 40.46  724828 1.0087  27.2 26??  28d  10
2020 05 25 19  02 32 02.566   +07 37 34.67  736612 1.0087  27.4 26??  28d  10
2020 05 25 20  02 30 36.120   +07 48 07.19  748424 1.0086  27.7 26??  28d  10
2020 05 25 21  02 29 12.296   +07 58 19.02  760261 1.0086  27.9 26??  28d  10
2020 05 25 22  02 27 50.980   +08 08 11.10  772124 1.0085  28.2 26??  28d  10
2020 05 25 23  02 26 32.066   +08 17 44.31  784009 1.0085  28.4 26??  29d  10
2020 05 26 00  02 25 15.452   +08 26 59.49  795917 1.0084  28.7 26??  29d  10
2020 05 26 01  02 24 01.043   +08 35 57.42  807846 1.0084  28.9 26??  29d  10
2020 05 26 02  02 22 48.747   +08 44 38.87  819795 1.0083  29.1 26??  29d  10
2020 05 26 03  02 21 38.479   +08 53 04.52  831763 1.0083  29.4 26??  29d  10
2020 05 26 04  02 20 30.156   +09 01 15.06  843750 1.0082  29.6 26??  29d  10
2020 05 26 05  02 19 23.702   +09 09 11.12  855754 1.0082  29.8 26??  29d  10
2020 05 26 06  02 18 19.044   +09 16 53.30  867774 1.0081  30.0 26??  29d  10
2020 05 26 07  02 17 16.110   +09 24 22.17  879811 1.0081  30.2 26??  29d  10
2020 05 26 08  02 16 14.835   +09 31 38.28  891862 1.0080  30.5 26??  29d  10
2020 05 26 09  02 15 15.157   +09 38 42.13  903929 1.0080  30.7 26??  29d  10
2020 05 26 10  02 14 17.014   +09 45 34.22  916009 1.0079  30.9 26??  29d  10
2020 05 26 11  02 13 20.350   +09 52 15.01  928102 1.0079  31.1 26??  29d  10
2020 05 26 12  02 12 25.111   +09 58 44.94  940208 1.0078  31.3 26??  29d  10
2020 05 26 13  02 11 31.245   +10 05 04.43  952326 1.0078  31.5 26??  29d  10
2020 05 26 14  02 10 38.702   +10 11 13.88  964455 1.0077  31.7 26??  29d  10
2020 05 26 15  02 09 47.436   +10 17 13.67  976596 1.0077  31.9 26??  29d  10
2020 05 26 16  02 08 57.401   +10 23 04.15  988748 1.0076  32.1 26??  30d  10
2020 05 26 17  02 08 08.555   +10 28 45.68  .00669 1.0076  32.2 26??  30d  10
2020 05 26 18  02 07 20.857   +10 34 18.58  .00677 1.0075  32.4 26??  30d  10